Location: Gairloch Mountain Observatory
(46.1383°N, 60.9640°W)
Time: 18:37:13
(UTC-03:00)

CENTAUR R/B - Visible Passes

Search period start: 23 August 2017 00:00
Search period end: 02 September 2017 00:00
Orbit: 824 x 1365 km, 63.5° (Epoch: 17 August)

Date Brightness Start Highest point End Pass type
(mag) Time Alt. Az. Time Alt. Az. Time Alt. Az.
23 Aug 3.6 00:36:26 10° NW 00:43:31 45° WSW 00:43:31 45° WSW visible
23 Aug 3.8 21:57:19 10° NNW 22:04:31 43° NE 22:09:26 22° E visible
23 Aug 3.1 23:47:59 10° NW 23:55:47 67° WSW 23:56:35 64° SSW visible
24 Aug 4.9 01:40:53 10° WNW 01:43:45 15° W 01:43:45 15° W visible
24 Aug 4.1 21:09:05 10° NNW 21:15:46 33° NNE 21:22:32 12° E visible
24 Aug 3.0 22:59:40 10° NW 23:07:32 86° NE 23:09:42 55° SE visible
25 Aug 4.3 00:51:18 10° WNW 00:56:51 26° W 00:56:51 26° W visible
25 Aug 4.4 20:20:45 10° NNW 20:26:52 26° NNE 20:33:28 10° ENE visible
25 Aug 3.3 22:11:27 10° NW 22:19:07 63° NE 22:22:51 35° ESE visible
26 Aug 3.7 00:02:28 10° NW 00:09:46 41° WSW 00:10:01 41° WSW visible
26 Aug 3.7 21:23:15 10° NNW 21:30:33 46° NE 21:36:03 20° ESE visible
26 Aug 3.2 23:13:58 10° NW 23:21:42 61° WSW 23:23:13 53° SSW visible
27 Aug 5.0 01:07:24 10° WNW 01:10:24 14° W 01:10:24 14° W visible
27 Aug 4.0 20:35:02 10° NNW 20:41:51 35° NNE 20:49:14 10° E visible
27 Aug 3.0 22:25:37 10° NW 22:33:29 87° SW 22:36:29 45° SSE visible
28 Aug 4.5 00:17:28 10° WNW 00:23:30 24° WSW 00:23:39 24° WSW visible
28 Aug 3.2 21:37:23 10° NW 21:45:08 68° NE 21:49:46 29° ESE visible
28 Aug 3.9 23:28:30 10° NW 23:35:38 37° WSW 23:36:57 35° SW visible
29 Aug 3.5 20:49:10 10° NW 20:56:36 49° NE 21:03:07 16° ESE visible
29 Aug 3.5 22:39:56 10° NW 22:47:37 56° WSW 22:50:18 41° S visible
30 Aug 5.1 00:34:11 10° W 00:36:58 12° WSW 00:37:29 12° WSW visible
30 Aug 3.1 21:51:34 10° NW 21:59:26 81° SW 22:03:44 33° SSE visible
30 Aug 4.6 23:43:41 10° WNW 23:49:20 21° WSW 23:50:54 20° WSW visible
31 Aug 3.2 21:03:19 10° NW 21:11:06 73° NE 21:17:12 21° SE visible
31 Aug 4.2 22:54:35 10° NW 23:01:31 33° WSW 23:04:23 27° SSW visible
01 Sep 3.4 20:15:07 10° NW 20:22:37 53° NE 20:30:43 10° ESE visible
01 Sep 3.7 22:05:56 10° NW 22:13:31 51° WSW 22:17:55 27° S visible
